Hourly Data Report for March 19, 2017

PORT ALBERNI (AUT)
BRITISH COLUMBIA

49°18'59.700" N
124°55'36.600" W
76.20 m
1036B06
71475
WQC

Download Data

Hourly Data (March 2017)
Hourly Data Report for March 19, 2017
TIME
LST
Temp Definition
°C
Dew Point Definition
°C
Rel Hum Definition
%
Precip. Amount Definition
mm

Wind Dir Definition
10's deg

Wind Spd Definition
km/h
Visibility Definition
km
Stn Press Definition
kPa
Hmdx Definition


Wind Chill Definition


Weather Definition


00:00 -0.8 -1.0 98 0.0 15 1   101.22   -1 LegendNANA
01:00 -0.6 -0.7 99 0.0 4 2   101.28   -1 LegendNANA
02:00 -0.5 -0.7 99 0.0 4 3   101.34   -1 LegendNANA
03:00 -0.5 -0.6 99 0.0 0 1   101.40   -1 LegendNANA
04:00 -0.2 -0.3 99 0.0 33 2   101.47   -1 LegendNANA
05:00 0.0 -0.1 99 0.0   0   101.55     LegendNANA
06:00 0.1 0.0 99 0.0 6 2   101.62     LegendNANA
07:00 0.1 0.0 99 0.0 9 4   101.68     LegendNANA
08:00 0.3 0.1 99 0.0 33 4   101.73     LegendNANA
09:00 0.3 0.1 99 0.0 3 3   101.80     LegendNANA
10:00 0.8 -0.2 93 0.0 31 3   101.85     LegendNANA
11:00 2.1 0.6 89 0.0 0 1   101.85     LegendNANA
12:00 3.3 1.4 87 0.0 13 3   101.82     LegendNANA
13:00 6.2 2.0 74 0.0 14 5   101.78     LegendNANA
14:00 7.9 -1.1 53 0.0 15 5   101.70     LegendNANA
15:00 9.0 -6.4 33 0.0 15 7   101.66     LegendNANA
16:00 9.5 -0.6 49 0.0 12 10   101.61     LegendNANA
17:00 9.0 -1.6 47 0.0 18 7   101.59     LegendNANA
18:00 6.3 0.1 65 0.0 30 6   101.58     LegendNANA
19:00 2.6 0.4 86 0.4 30 5   101.58     LegendNANA
20:00 1.7 -0.4 86 0.0 35 4   101.59     LegendNANA
21:00 -0.7 -1.4 95 0.0 22 3   101.56   -2 LegendNANA
22:00 -0.7 -1.2 96 0.0 31 3   101.52   -2 LegendNANA
23:00 -1.3 -1.7 97 0.0 10 1   101.50   -2 LegendNANA

Notes on Data Quality.

Legend

  • E = Estimated
  • M = Missing
  • NA = Not Available*
  • [empty] = Indicates an unobserved value
Date modified: